Location: ?????????
(55.6553°N, 38.9075°E)
Time: 10:40:40
(UTC+00:00)

COBE Rocket - Pass Details

Date: 18 October 2019
Orbit: 680 x 782 km, 97.1° (Epoch: 18 November)

Event Time Altitude Azimuth Distance (km) Brightness Sun altitude
Rises 02:37:50 0° 175° (S) 3,191 7.3 -12.3°
Reaches altitude 10° 02:40:07 10° 178° (S) 2,285 6.5 -12.0°
Maximum altitude 02:45:08 63° 260° (W) 861 4.0 -11.3°
Drops below altitude 10° 02:50:18 10° 342° (NNW) 2,345 6.3 -10.5°
Sets 02:52:41 0° 345° (NNW) 3,283 7.1 -10.2°
